This is the latest recevied weather packets stored in our database for station/object N5GMJ. If no packets are shown the sender has not sent any weather packets the latest 1 day(s).
| Time | Temp. | Humidity | Pressure | Rain* | Wind** | Luminosity | Snow |
|---|---|---|---|---|---|---|---|
| 1777971336 | 21.67° C | 80% | 1004.6 hPa | 0 mm | 0.89 m/s, 206° | - | - |
| 1777971034 | 21.67° C | 80% | 1004.8 hPa | 0 mm | 1.79 m/s, 181° | - | - |
| 1777970731 | 21.67° C | 79% | 1004.9 hPa | 0 mm | 0.45 m/s, 156° | - | - |
| 1777970429 | 21.67° C | 80% | 1004.9 hPa | 0 mm | 0.89 m/s, 162° | - | - |
| 1777970126 | 21.67° C | 79% | 1004.8 hPa | 0 mm | 3.58 m/s, 176° | - | - |
| 1777969823 | 21.67° C | 79% | 1004.9 hPa | 0 mm | 0.89 m/s, 273° | - | - |
| 1777969518 | 21.67° C | 79% | 1004.9 hPa | 0 mm | 2.24 m/s, 172° | - | - |
| 1777969215 | 21.67° C | 79% | 1004.9 hPa | 0 mm | 0.89 m/s, 153° | - | - |
| 1777968912 | 21.67° C | 79% | 1005 hPa | 0 mm | 0.45 m/s, 177° | - | - |
| 1777968609 | 21.67° C | 79% | 1005.1 hPa | 0 mm | 1.34 m/s, 103° | - | - |
| 1777968305 | 21.67° C | 79% | 1004.9 hPa | 0 mm | 1.34 m/s, 168° | - | - |
| 1777968001 | 21.67° C | 79% | 1004.7 hPa | 0 mm | 0.89 m/s, 146° | - | - |
| 1777967698 | 21.67° C | 78% | 1005 hPa | 0 mm | 2.24 m/s, 129° | - | - |
| 1777967395 | 22.22° C | 78% | 1004.9 hPa | 0 mm | 0.89 m/s, 104° | - | - |
| 1777967093 | 22.22° C | 77% | 1004.8 hPa | 0 mm | 0.89 m/s, 157° | - | - |
| 1777966789 | 22.22° C | 77% | 1004.9 hPa | 0 mm | 0.89 m/s, 158° | - | - |
| 1777966487 | 22.78° C | 76% | 1004.9 hPa | 0 mm | 1.79 m/s, 148° | - | - |
| 1777966184 | 22.78° C | 75% | 1005.3 hPa | 0 mm | 1.79 m/s, 182° | - | - |
| 1777965880 | 22.78° C | 76% | 1005.3 hPa | 0 mm | 0.89 m/s, 157° | - | - |
| 1777965576 | 22.78° C | 75% | 1005.3 hPa | 0 mm | 1.34 m/s, 226° | - | - |
| 1777965272 | 22.78° C | 75% | 1005.3 hPa | 0 mm | 3.13 m/s, 223° | - | - |
| 1777964971 | 22.78° C | 75% | 1005.7 hPa | 0 mm | 0.89 m/s, 149° | - | - |
| 1777964667 | 22.78° C | 74% | 1005.5 hPa | 0 mm | 1.34 m/s, 162° | - | - |
| 1777964362 | 22.78° C | 74% | 1005.9 hPa | 0 mm | 1.79 m/s, 173° | - | - |
| 1777964059 | 22.78° C | 74% | 1005.7 hPa | 0 mm | 1.79 m/s, 192° | - | - |
* Rain latest hour (hover to see other rain measurements)
** Current wind speed in m/s (hover to see current wind gust speed)